Year,Month,Day,Hour,Minute,Value (Times are PST for temperature in C)
2019,11,23,00,00,6.70
2019,11,23,00,01,6.70
2019,11,23,00,02,6.70
2019,11,23,00,03,6.70
2019,11,23,00,04,6.70
2019,11,23,00,05,6.70
2019,11,23,00,06,6.70
2019,11,23,00,07,6.70
2019,11,23,00,08,6.70
2019,11,23,00,09,6.70
2019,11,23,00,10,6.70
2019,11,23,00,11,6.70
2019,11,23,00,12,6.70
2019,11,23,00,13,6.70
2019,11,23,00,14,6.70
2019,11,23,00,15,6.70
2019,11,23,00,16,6.70
2019,11,23,00,17,6.80
2019,11,23,00,18,6.80
2019,11,23,00,19,6.90
2019,11,23,00,20,6.90
2019,11,23,00,21,7.00
2019,11,23,00,22,7.00
2019,11,23,00,23,7.00
2019,11,23,00,24,7.00
2019,11,23,00,25,7.10
2019,11,23,00,26,7.10
2019,11,23,00,27,7.10
2019,11,23,00,28,7.10
2019,11,23,00,29,7.10
2019,11,23,00,30,7.10
2019,11,23,00,31,7.10
2019,11,23,00,32,7.10
2019,11,23,00,33,7.10
2019,11,23,00,34,7.10
2019,11,23,00,35,7.10
2019,11,23,00,36,7.10
2019,11,23,00,37,7.10
2019,11,23,00,38,7.10
2019,11,23,00,39,7.10
2019,11,23,00,40,7.10
2019,11,23,00,41,7.10
2019,11,23,00,42,7.10
2019,11,23,00,43,7.00
2019,11,23,00,44,7.00
2019,11,23,00,45,7.00
2019,11,23,00,46,7.00
2019,11,23,00,47,7.00
2019,11,23,00,48,7.00
2019,11,23,00,49,7.00
2019,11,23,00,50,7.00
2019,11,23,00,51,7.00
2019,11,23,00,52,7.00
2019,11,23,00,53,7.10
2019,11,23,00,54,7.10
2019,11,23,00,55,7.10
2019,11,23,00,56,7.10
2019,11,23,00,57,7.10
2019,11,23,00,58,7.10
2019,11,23,00,59,7.10
2019,11,23,01,00,7.10
2019,11,23,01,01,7.10
2019,11,23,01,02,7.10
2019,11,23,01,03,7.10
2019,11,23,01,04,7.10
2019,11,23,01,05,7.10
2019,11,23,01,06,7.10
2019,11,23,01,07,7.10
2019,11,23,01,08,7.10
2019,11,23,01,09,7.10
2019,11,23,01,10,7.10
2019,11,23,01,11,7.10
2019,11,23,01,12,7.10
2019,11,23,01,13,7.10
2019,11,23,01,14,7.10
2019,11,23,01,15,7.10
2019,11,23,01,16,7.10
2019,11,23,01,17,7.10
2019,11,23,01,18,7.10
2019,11,23,01,19,7.10
2019,11,23,01,20,7.10
2019,11,23,01,21,7.10
2019,11,23,01,22,7.10
2019,11,23,01,23,7.10
2019,11,23,01,24,7.00
2019,11,23,01,25,7.00
2019,11,23,01,26,7.00
2019,11,23,01,27,7.00
2019,11,23,01,28,7.00
2019,11,23,01,29,7.00
2019,11,23,01,30,7.00
2019,11,23,01,31,7.00
2019,11,23,01,32,7.00
2019,11,23,01,33,7.00
2019,11,23,01,34,7.00
2019,11,23,01,35,7.00
2019,11,23,01,36,7.00
2019,11,23,01,37,7.00
2019,11,23,01,38,7.00
2019,11,23,01,39,7.00
2019,11,23,01,40,7.00
2019,11,23,01,41,7.00
2019,11,23,01,42,7.00
2019,11,23,01,43,7.00
2019,11,23,01,44,7.00
2019,11,23,01,45,7.00
2019,11,23,01,46,7.00
2019,11,23,01,47,7.00
2019,11,23,01,48,7.00
2019,11,23,01,49,7.00
2019,11,23,01,50,7.00
2019,11,23,01,51,7.00
2019,11,23,01,52,7.00
2019,11,23,01,53,7.00
2019,11,23,01,54,7.10
2019,11,23,01,55,7.10
2019,11,23,01,56,7.10
2019,11,23,01,57,7.20
2019,11,23,01,58,7.20
2019,11,23,01,59,7.20
2019,11,23,02,00,7.20
2019,11,23,02,01,7.20
2019,11,23,02,02,7.20
2019,11,23,02,03,7.30
2019,11,23,02,04,7.30
2019,11,23,02,05,7.30
2019,11,23,02,06,7.30
2019,11,23,02,07,7.30
2019,11,23,02,08,7.30
2019,11,23,02,09,7.30
2019,11,23,02,10,7.40
2019,11,23,02,11,7.40
2019,11,23,02,12,7.40
2019,11,23,02,13,7.40
2019,11,23,02,14,7.40
2019,11,23,02,15,7.40
2019,11,23,02,16,7.40
2019,11,23,02,17,7.40
2019,11,23,02,18,7.40
2019,11,23,02,19,7.40
2019,11,23,02,20,7.40
2019,11,23,02,21,7.50
2019,11,23,02,22,7.50
2019,11,23,02,23,7.50
2019,11,23,02,24,7.50
2019,11,23,02,25,7.50
2019,11,23,02,26,7.50
2019,11,23,02,27,7.50
2019,11,23,02,28,7.50
2019,11,23,02,29,7.50
2019,11,23,02,30,7.50
2019,11,23,02,31,7.50
2019,11,23,02,32,7.50
2019,11,23,02,33,7.50
2019,11,23,02,34,7.40
2019,11,23,02,35,7.40
2019,11,23,02,36,7.40
2019,11,23,02,37,7.40
2019,11,23,02,38,7.40
2019,11,23,02,39,7.40
2019,11,23,02,40,7.40
2019,11,23,02,41,7.40
2019,11,23,02,42,7.40
2019,11,23,02,43,7.40
2019,11,23,02,44,7.40
2019,11,23,02,45,7.40
2019,11,23,02,46,7.40
2019,11,23,02,47,7.40
2019,11,23,02,48,7.40
2019,11,23,02,49,7.40
2019,11,23,02,50,7.30
2019,11,23,02,51,7.30
2019,11,23,02,52,7.30
2019,11,23,02,53,7.30
2019,11,23,02,54,7.30
2019,11,23,02,55,7.30
2019,11,23,02,56,7.30
2019,11,23,02,57,7.30
2019,11,23,02,58,7.30
2019,11,23,02,59,7.30
2019,11,23,03,00,7.30
2019,11,23,03,01,7.30
2019,11,23,03,02,7.30
2019,11,23,03,03,7.30
2019,11,23,03,04,7.30
2019,11,23,03,05,7.30
2019,11,23,03,06,7.30
2019,11,23,03,07,7.30
2019,11,23,03,08,7.30
2019,11,23,03,09,7.30
2019,11,23,03,10,7.30
2019,11,23,03,11,7.20
2019,11,23,03,12,7.20
2019,11,23,03,13,7.20
2019,11,23,03,14,7.20
2019,11,23,03,15,7.20
2019,11,23,03,16,7.20
2019,11,23,03,17,7.20
2019,11,23,03,18,7.20
2019,11,23,03,19,7.20
2019,11,23,03,20,7.20
2019,11,23,03,21,7.20
2019,11,23,03,22,7.20
2019,11,23,03,23,7.20
2019,11,23,03,24,7.20
2019,11,23,03,25,7.20
2019,11,23,03,26,7.20
2019,11,23,03,27,7.20
2019,11,23,03,28,7.20
2019,11,23,03,29,7.20
2019,11,23,03,30,7.20
2019,11,23,03,31,7.20
2019,11,23,03,32,7.20
2019,11,23,03,33,7.20
2019,11,23,03,34,7.20
2019,11,23,03,35,7.20
2019,11,23,03,36,7.20
2019,11,23,03,37,7.20
2019,11,23,03,38,7.20
2019,11,23,03,39,7.20
2019,11,23,03,40,7.20
2019,11,23,03,41,7.20
2019,11,23,03,42,7.20
2019,11,23,03,43,7.20
2019,11,23,03,44,7.20
2019,11,23,03,45,7.20
2019,11,23,03,46,7.20
2019,11,23,03,47,7.20
2019,11,23,03,48,7.10
2019,11,23,03,49,7.10
2019,11,23,03,50,7.10
2019,11,23,03,51,7.10
2019,11,23,03,52,7.20
2019,11,23,03,53,7.20
2019,11,23,03,54,7.20
2019,11,23,03,55,7.20
2019,11,23,03,56,7.20
2019,11,23,03,57,7.20
2019,11,23,03,58,7.20
2019,11,23,03,59,7.30
2019,11,23,04,00,7.30
2019,11,23,04,01,7.30
2019,11,23,04,02,7.30
2019,11,23,04,03,7.30
2019,11,23,04,04,7.30
2019,11,23,04,05,7.30
2019,11,23,04,06,7.30
2019,11,23,04,07,7.30
2019,11,23,04,08,7.30
2019,11,23,04,09,7.30
2019,11,23,04,10,7.30
2019,11,23,04,11,7.30
2019,11,23,04,12,7.30
2019,11,23,04,13,7.30
2019,11,23,04,14,7.30
2019,11,23,04,15,7.30
2019,11,23,04,16,7.30
2019,11,23,04,17,7.20
2019,11,23,04,18,7.20
2019,11,23,04,19,7.20
2019,11,23,04,20,7.20
2019,11,23,04,21,7.20
2019,11,23,04,22,7.20
2019,11,23,04,23,7.20
2019,11,23,04,24,7.20
2019,11,23,04,25,7.20
2019,11,23,04,26,7.20
2019,11,23,04,27,7.20
2019,11,23,04,28,7.20
2019,11,23,04,29,7.20
2019,11,23,04,30,7.20
2019,11,23,04,31,7.20
2019,11,23,04,32,7.20
2019,11,23,04,33,7.20
2019,11,23,04,34,7.20
2019,11,23,04,35,7.20
2019,11,23,04,36,7.20
2019,11,23,04,37,7.20
2019,11,23,04,38,7.30
2019,11,23,04,39,7.30
2019,11,23,04,40,7.30
2019,11,23,04,41,7.30
2019,11,23,04,42,7.30
2019,11,23,04,43,7.30
2019,11,23,04,44,7.30
2019,11,23,04,45,7.30
2019,11,23,04,46,7.30
2019,11,23,04,47,7.30
2019,11,23,04,48,7.30
2019,11,23,04,49,7.30
2019,11,23,04,50,7.30
2019,11,23,04,51,7.30
2019,11,23,04,52,7.30
2019,11,23,04,53,7.30
2019,11,23,04,54,7.40
2019,11,23,04,55,7.40
2019,11,23,04,56,7.40
2019,11,23,04,57,7.40
2019,11,23,04,58,7.40
2019,11,23,04,59,7.40
2019,11,23,05,00,7.40
2019,11,23,05,01,7.40
2019,11,23,05,02,7.40
2019,11,23,05,03,7.40
2019,11,23,05,04,7.40
2019,11,23,05,05,7.40
2019,11,23,05,06,7.50
2019,11,23,05,07,7.50
2019,11,23,05,08,7.50
2019,11,23,05,09,7.50
2019,11,23,05,10,7.50
2019,11,23,05,11,7.60
2019,11,23,05,12,7.60
2019,11,23,05,13,7.60
2019,11,23,05,14,7.60
2019,11,23,05,15,7.60
2019,11,23,05,16,7.60
2019,11,23,05,17,7.60
2019,11,23,05,18,7.60
2019,11,23,05,19,7.60
2019,11,23,05,20,7.60
2019,11,23,05,21,7.60
2019,11,23,05,22,7.60
2019,11,23,05,23,7.60
2019,11,23,05,24,7.60
2019,11,23,05,25,7.60
2019,11,23,05,26,7.60
2019,11,23,05,27,7.60
2019,11,23,05,28,7.60
2019,11,23,05,29,7.60
2019,11,23,05,30,7.60
2019,11,23,05,31,7.60
2019,11,23,05,32,7.60
2019,11,23,05,33,7.60
2019,11,23,05,34,7.60
2019,11,23,05,35,7.60
2019,11,23,05,36,7.50
2019,11,23,05,37,7.50
2019,11,23,05,38,7.50
2019,11,23,05,39,7.50
2019,11,23,05,40,7.50
2019,11,23,05,41,7.50
2019,11,23,05,42,7.50
2019,11,23,05,43,7.50
2019,11,23,05,44,7.50
2019,11,23,05,45,7.50
2019,11,23,05,46,7.50
2019,11,23,09,44,7.70
2019,11,23,09,45,7.70
2019,11,23,09,46,7.70
2019,11,23,09,47,7.70
2019,11,23,09,48,7.70
2019,11,23,09,49,7.70
2019,11,23,09,50,7.70
2019,11,23,09,51,7.70
2019,11,23,09,52,7.70
2019,11,23,09,53,7.70
2019,11,23,09,54,7.70
2019,11,23,09,55,7.70
2019,11,23,09,56,7.70
2019,11,23,09,57,7.70
2019,11,23,09,58,7.70
2019,11,23,09,59,7.70
2019,11,23,10,00,7.70
2019,11,23,10,01,7.60
2019,11,23,10,02,7.60
2019,11,23,10,03,7.60
2019,11,23,10,04,7.60
2019,11,23,10,05,7.60
2019,11,23,10,06,7.60
2019,11,23,10,07,7.60
2019,11,23,10,08,7.60
2019,11,23,10,09,7.60
2019,11,23,10,10,7.60
2019,11,23,10,11,7.60
2019,11,23,10,12,7.60
2019,11,23,10,13,7.60
2019,11,23,10,14,7.70
2019,11,23,10,15,7.70
2019,11,23,10,16,7.70
2019,11,23,10,17,7.70
2019,11,23,10,18,7.70
2019,11,23,10,19,7.60
2019,11,23,10,20,7.60
2019,11,23,10,21,7.60
2019,11,23,10,22,7.60
2019,11,23,10,23,7.60
2019,11,23,10,24,7.60
2019,11,23,10,25,7.60
2019,11,23,10,26,7.60
2019,11,23,10,27,7.60
2019,11,23,10,28,7.60
2019,11,23,10,29,7.60
2019,11,23,10,30,7.50
2019,11,23,10,31,7.50
2019,11,23,10,32,7.50
2019,11,23,10,33,7.50
2019,11,23,10,34,7.50
2019,11,23,10,35,7.60
2019,11,23,10,36,7.50
2019,11,23,10,37,7.50
2019,11,23,10,38,7.50
2019,11,23,10,39,7.50
2019,11,23,10,40,7.50
2019,11,23,10,41,7.50
2019,11,23,10,42,7.50
2019,11,23,10,43,7.50
2019,11,23,10,44,7.50
2019,11,23,10,45,7.50
2019,11,23,10,46,7.50
2019,11,23,10,47,7.60
2019,11,23,10,48,7.60
2019,11,23,10,49,7.60
2019,11,23,10,50,7.60
2019,11,23,10,51,7.60
2019,11,23,10,52,7.50
2019,11,23,10,53,7.50
2019,11,23,10,54,7.50
2019,11,23,10,55,7.50
2019,11,23,10,56,7.50
2019,11,23,10,57,7.50
2019,11,23,10,58,7.50
2019,11,23,10,59,7.60
2019,11,23,11,00,7.50
2019,11,23,11,01,7.50
2019,11,23,11,02,7.50
2019,11,23,11,03,7.50
2019,11,23,11,04,7.50
2019,11,23,11,05,7.40
2019,11,23,11,06,7.40
2019,11,23,11,07,7.40
2019,11,23,11,08,7.40
2019,11,23,11,09,7.40
2019,11,23,11,10,7.40
2019,11,23,11,11,7.40
2019,11,23,11,12,7.40
2019,11,23,11,13,7.40
2019,11,23,11,14,7.40
2019,11,23,11,15,7.40
2019,11,23,11,16,7.40
2019,11,23,11,17,7.40
2019,11,23,11,18,7.40
2019,11,23,11,19,7.40
2019,11,23,11,20,7.40
2019,11,23,11,21,7.40
2019,11,23,11,22,7.40
2019,11,23,11,23,7.40
2019,11,23,11,24,7.40
2019,11,23,11,25,7.40
2019,11,23,11,26,7.40
2019,11,23,11,27,7.40
2019,11,23,11,28,7.40
2019,11,23,11,29,7.30
2019,11,23,11,30,7.30
2019,11,23,11,31,7.30
2019,11,23,11,32,7.30
2019,11,23,11,33,7.30
2019,11,23,11,34,7.40
2019,11,23,11,35,7.40
2019,11,23,11,36,7.30
2019,11,23,11,37,7.30
2019,11,23,11,38,7.30
2019,11,23,11,39,7.30
2019,11,23,11,40,7.30
2019,11,23,11,41,7.30
2019,11,23,11,42,7.30
2019,11,23,11,43,7.30
2019,11,23,11,44,7.30
2019,11,23,11,45,7.30
2019,11,23,11,46,7.30
2019,11,23,11,47,7.30
2019,11,23,11,48,7.40
2019,11,23,11,49,7.50
2019,11,23,11,50,7.50
2019,11,23,11,51,7.50
2019,11,23,11,52,7.60
2019,11,23,11,53,7.60
2019,11,23,11,54,7.60
2019,11,23,11,55,7.70
2019,11,23,11,56,7.70
2019,11,23,11,57,7.70
2019,11,23,11,58,7.70
2019,11,23,11,59,7.70
2019,11,23,12,00,7.70
2019,11,23,12,01,7.80
2019,11,23,12,02,7.80
2019,11,23,12,03,7.80
2019,11,23,12,04,7.80
2019,11,23,12,05,7.80
2019,11,23,12,06,7.80
2019,11,23,12,07,7.90
2019,11,23,12,08,7.90
2019,11,23,12,09,7.90
2019,11,23,12,10,7.90
2019,11,23,12,11,7.90
2019,11,23,12,12,7.90
2019,11,23,12,13,7.80
2019,11,23,12,14,7.80
2019,11,23,12,15,7.70
2019,11,23,12,16,7.70
2019,11,23,12,17,7.70
2019,11,23,12,18,7.70
2019,11,23,12,19,7.70
2019,11,23,12,20,7.70
2019,11,23,12,21,7.70
2019,11,23,12,22,7.60
2019,11,23,12,23,7.60
2019,11,23,12,24,7.60
2019,11,23,12,25,7.50
2019,11,23,12,26,7.50
2019,11,23,12,27,7.50
2019,11,23,12,28,7.50
2019,11,23,12,29,7.60
2019,11,23,12,30,7.60
2019,11,23,12,31,7.60
2019,11,23,12,32,7.50
2019,11,23,12,33,7.50
2019,11,23,12,34,7.50
2019,11,23,12,35,7.50
2019,11,23,12,36,7.50
2019,11,23,12,37,7.60
2019,11,23,12,38,7.70
2019,11,23,12,39,7.70
2019,11,23,12,40,7.70
2019,11,23,12,41,7.80
2019,11,23,12,42,7.80
2019,11,23,12,43,7.80
2019,11,23,12,44,7.80
2019,11,23,12,45,7.80
2019,11,23,12,46,7.80
2019,11,23,12,47,7.80
2019,11,23,12,48,7.80
2019,11,23,12,49,7.80
2019,11,23,12,50,7.80
2019,11,23,12,51,7.80
2019,11,23,12,52,7.80
2019,11,23,12,53,7.80
2019,11,23,12,54,7.80
2019,11,23,12,55,7.80
2019,11,23,12,56,7.80
2019,11,23,12,57,7.80
2019,11,23,12,58,7.80
2019,11,23,12,59,7.80
2019,11,23,13,00,7.80
2019,11,23,13,01,7.80
2019,11,23,13,02,7.90
2019,11,23,13,03,7.80
2019,11,23,13,04,7.80
2019,11,23,13,05,7.80
2019,11,23,13,06,7.70
2019,11,23,13,07,7.80
2019,11,23,13,08,7.80
2019,11,23,13,09,7.80
2019,11,23,13,10,7.80
2019,11,23,13,11,7.80
2019,11,23,13,12,7.80
2019,11,23,13,13,7.80
2019,11,23,13,14,7.80
2019,11,23,13,15,7.80
2019,11,23,13,16,7.80
2019,11,23,13,17,7.80
2019,11,23,13,18,7.80
2019,11,23,13,19,7.80
2019,11,23,13,20,7.80
2019,11,23,13,21,7.80
2019,11,23,13,22,7.80
2019,11,23,13,23,7.80
2019,11,23,13,24,7.80
2019,11,23,13,25,7.80
2019,11,23,13,26,7.80
2019,11,23,13,27,7.80
2019,11,23,13,28,7.80
2019,11,23,13,29,7.70
2019,11,23,13,30,7.70
2019,11,23,13,31,7.70
2019,11,23,13,32,7.80
2019,11,23,13,33,7.80
2019,11,23,13,34,7.80
2019,11,23,13,35,7.80
2019,11,23,13,36,7.80
2019,11,23,13,37,7.70
2019,11,23,13,38,7.70
2019,11,23,13,39,7.70
2019,11,23,13,40,7.70
2019,11,23,13,41,7.70
2019,11,23,13,42,7.70
2019,11,23,13,43,7.70
2019,11,23,13,44,7.70
2019,11,23,13,45,7.70
2019,11,23,13,46,7.70
2019,11,23,13,47,7.70
2019,11,23,13,48,7.70
2019,11,23,13,49,7.70
2019,11,23,13,50,7.70
2019,11,23,13,51,7.70
2019,11,23,13,52,7.70
2019,11,23,13,53,7.70
2019,11,23,13,54,7.60
2019,11,23,13,55,7.60
2019,11,23,13,56,7.60
2019,11,23,13,57,7.60
2019,11,23,13,58,7.60
2019,11,23,13,59,7.60
2019,11,23,14,00,7.60
2019,11,23,14,01,7.60
2019,11,23,14,02,7.60
2019,11,23,14,03,7.60
2019,11,23,14,04,7.60
2019,11,23,14,05,7.60
2019,11,23,14,06,7.60
2019,11,23,14,07,7.50
2019,11,23,14,08,7.50
2019,11,23,14,09,7.50
2019,11,23,14,10,7.50
2019,11,23,14,11,7.60
2019,11,23,14,12,7.60
2019,11,23,14,13,7.60
2019,11,23,14,14,7.60
2019,11,23,14,15,7.60
2019,11,23,14,16,7.60
2019,11,23,14,17,7.60
2019,11,23,14,18,7.60
2019,11,23,14,19,7.70
2019,11,23,14,20,7.70
2019,11,23,14,21,7.70
2019,11,23,14,22,7.80
2019,11,23,14,23,7.80
2019,11,23,14,24,7.80
2019,11,23,14,25,7.80
2019,11,23,14,26,7.80
2019,11,23,14,27,7.80
2019,11,23,14,28,7.80
2019,11,23,14,29,7.90
2019,11,23,14,30,7.90
2019,11,23,14,31,7.90
2019,11,23,14,32,7.90
2019,11,23,14,33,7.90
2019,11,23,14,34,7.80
2019,11,23,14,35,7.80
2019,11,23,14,36,7.90
2019,11,23,14,37,7.80
2019,11,23,14,38,7.80
2019,11,23,14,39,7.80
2019,11,23,14,40,7.80
2019,11,23,14,41,7.80
2019,11,23,14,42,7.80
2019,11,23,14,43,7.80
2019,11,23,14,44,7.80
2019,11,23,14,45,7.80
2019,11,23,14,46,7.80
2019,11,23,14,47,7.80
2019,11,23,14,48,7.80
2019,11,23,14,49,7.80
2019,11,23,14,50,7.80
2019,11,23,14,51,7.80
2019,11,23,14,52,7.80
2019,11,23,14,53,7.80
2019,11,23,14,54,7.80
2019,11,23,14,55,7.80
2019,11,23,14,56,7.80
2019,11,23,14,57,7.80
2019,11,23,14,58,7.80
2019,11,23,14,59,7.80
2019,11,23,15,00,7.80
2019,11,23,15,01,7.80
2019,11,23,15,02,7.80
2019,11,23,15,03,7.80
2019,11,23,15,04,7.80
2019,11,23,15,05,7.80
2019,11,23,15,06,7.80
2019,11,23,15,07,7.70
2019,11,23,15,08,7.70
2019,11,23,15,09,7.70
2019,11,23,15,10,7.70
2019,11,23,15,11,7.70
2019,11,23,15,12,7.70
2019,11,23,15,13,7.70
2019,11,23,15,14,7.70
2019,11,23,15,15,7.70
2019,11,23,15,16,7.70
2019,11,23,15,17,7.70
2019,11,23,15,18,7.70
2019,11,23,15,19,7.70
2019,11,23,15,20,7.70
2019,11,23,15,21,7.70
2019,11,23,15,22,7.70
2019,11,23,15,23,7.70
2019,11,23,15,24,7.70
2019,11,23,15,25,7.70
2019,11,23,15,26,7.70
2019,11,23,15,27,7.70
2019,11,23,15,28,7.60
2019,11,23,15,29,7.60
2019,11,23,15,30,7.60
2019,11,23,15,31,7.60
2019,11,23,15,32,7.60
2019,11,23,15,33,7.60
2019,11,23,15,34,7.60
2019,11,23,15,35,7.60
2019,11,23,15,36,7.60
2019,11,23,15,37,7.60
2019,11,23,15,38,7.60
2019,11,23,15,39,7.60
2019,11,23,15,40,7.60
2019,11,23,15,41,7.60
2019,11,23,15,42,7.60
2019,11,23,15,43,7.60
2019,11,23,15,44,7.60
2019,11,23,15,45,7.60
2019,11,23,15,46,7.60
2019,11,23,15,47,7.60
2019,11,23,15,48,7.60
2019,11,23,15,49,7.60
2019,11,23,15,50,7.60
2019,11,23,15,51,7.50
2019,11,23,15,52,7.50
2019,11,23,15,53,7.50
2019,11,23,15,54,7.50
2019,11,23,15,55,7.50
2019,11,23,15,56,7.60
2019,11,23,15,57,7.60
2019,11,23,15,58,7.60
2019,11,23,15,59,7.60
2019,11,23,16,00,7.60
2019,11,23,16,01,7.60
2019,11,23,16,02,7.60
2019,11,23,16,03,7.60
2019,11,23,16,04,7.60
2019,11,23,16,05,7.70
2019,11,23,16,06,7.70
2019,11,23,16,07,7.70
2019,11,23,16,08,7.60
2019,11,23,16,09,7.60
2019,11,23,16,10,7.60
2019,11,23,16,11,7.60
2019,11,23,16,12,7.60
2019,11,23,16,13,7.60
2019,11,23,16,14,7.60
2019,11,23,16,15,7.70
2019,11,23,16,16,7.70
2019,11,23,16,17,7.70
2019,11,23,16,18,7.70
2019,11,23,16,19,7.70
2019,11,23,16,20,7.70
2019,11,23,16,21,7.70
2019,11,23,16,22,7.70
2019,11,23,16,23,7.70
2019,11,23,16,24,7.70
2019,11,23,16,25,7.80
2019,11,23,16,26,7.80
2019,11,23,16,27,7.80
2019,11,23,16,28,7.80
2019,11,23,16,29,7.80
2019,11,23,16,30,7.80
2019,11,23,16,31,7.80
2019,11,23,16,32,7.80
2019,11,23,16,33,7.80
2019,11,23,16,34,7.80
2019,11,23,16,35,7.90
2019,11,23,16,36,7.90
2019,11,23,16,37,7.90
2019,11,23,16,38,7.90
2019,11,23,16,39,7.90
2019,11,23,16,40,7.90
2019,11,23,16,41,7.90
2019,11,23,16,42,7.90
2019,11,23,16,43,7.90
2019,11,23,16,44,7.90
2019,11,23,16,45,7.90
2019,11,23,16,46,7.90
2019,11,23,16,47,7.90
2019,11,23,16,48,7.90
2019,11,23,16,49,7.90
2019,11,23,16,50,7.90
2019,11,23,16,51,7.90
2019,11,23,16,52,7.90
2019,11,23,16,53,7.90
2019,11,23,16,54,7.90
2019,11,23,16,55,7.90
2019,11,23,16,56,7.90
2019,11,23,16,57,7.90
2019,11,23,16,58,8.00
2019,11,23,16,59,8.00
2019,11,23,17,00,8.00
2019,11,23,17,01,8.10
2019,11,23,17,02,8.10
2019,11,23,17,03,8.10
2019,11,23,17,04,8.20
2019,11,23,17,05,8.20
2019,11,23,17,06,8.20
2019,11,23,17,07,8.20
2019,11,23,17,08,8.20
2019,11,23,17,09,8.30
2019,11,23,17,10,8.30
2019,11,23,17,11,8.30
2019,11,23,17,12,8.30
2019,11,23,17,13,8.30
2019,11,23,17,14,8.30
2019,11,23,17,15,8.30
2019,11,23,17,16,8.30
2019,11,23,17,17,8.30
2019,11,23,17,18,8.30
2019,11,23,17,19,8.30
2019,11,23,17,20,8.30
2019,11,23,17,21,8.30
2019,11,23,17,22,8.30
2019,11,23,17,23,8.30
2019,11,23,17,24,8.30
2019,11,23,17,25,8.30
2019,11,23,17,26,8.30
2019,11,23,17,27,8.30
2019,11,23,17,28,8.40
2019,11,23,17,29,8.40
2019,11,23,17,30,8.40
2019,11,23,17,31,8.40
2019,11,23,17,32,8.30
2019,11,23,17,33,8.30
2019,11,23,17,34,8.30
2019,11,23,17,35,8.30
2019,11,23,17,36,8.40
2019,11,23,17,37,8.40
2019,11,23,17,38,8.40
2019,11,23,17,39,8.40
2019,11,23,17,40,8.50
2019,11,23,17,41,8.50
2019,11,23,17,42,8.50
2019,11,23,17,43,8.50
2019,11,23,17,44,8.60
2019,11,23,17,45,8.60
2019,11,23,17,46,8.60
2019,11,23,17,47,8.60
2019,11,23,17,48,8.60
2019,11,23,17,49,8.60
2019,11,23,17,50,8.70
2019,11,23,17,51,8.70
2019,11,23,17,52,8.70
2019,11,23,17,53,8.70
2019,11,23,17,54,8.70
2019,11,23,17,55,8.70
2019,11,23,17,56,8.70
2019,11,23,17,57,8.70
2019,11,23,17,58,8.70
2019,11,23,17,59,8.60
2019,11,23,18,00,8.60
2019,11,23,18,01,8.70
2019,11,23,18,02,8.70
2019,11,23,18,03,8.70
2019,11,23,18,04,8.70
2019,11,23,18,05,8.70
2019,11,23,18,06,8.70
2019,11,23,18,07,8.70
2019,11,23,18,08,8.70
2019,11,23,18,09,8.70
2019,11,23,18,10,8.70
2019,11,23,18,11,8.70
2019,11,23,18,12,8.70
2019,11,23,18,13,8.70
2019,11,23,18,14,8.70
2019,11,23,18,15,8.80
2019,11,23,18,16,8.80
2019,11,23,18,17,8.80
2019,11,23,18,18,8.80
2019,11,23,18,19,8.80
2019,11,23,18,20,8.80
2019,11,23,18,21,8.80
2019,11,23,18,22,8.80
2019,11,23,18,23,8.90
2019,11,23,18,24,8.90
2019,11,23,18,25,8.90
2019,11,23,18,26,8.90
2019,11,23,18,27,8.90
2019,11,23,18,28,8.90
2019,11,23,18,29,8.90
2019,11,23,18,30,8.90
2019,11,23,18,31,9.00
2019,11,23,18,32,9.00
2019,11,23,18,33,9.00
2019,11,23,18,34,9.00
2019,11,23,18,35,9.00
2019,11,23,18,36,9.00
2019,11,23,18,37,9.00
2019,11,23,18,38,8.90
2019,11,23,18,39,8.90
2019,11,23,18,40,8.90
2019,11,23,18,41,9.00
2019,11,23,18,42,9.00
2019,11,23,18,43,9.00
2019,11,23,18,44,9.00
2019,11,23,18,45,9.00
2019,11,23,18,46,9.00
2019,11,23,18,47,9.10
2019,11,23,18,48,9.10
2019,11,23,18,49,9.10
2019,11,23,18,50,9.10
2019,11,23,18,51,9.10
2019,11,23,18,52,9.10
2019,11,23,18,53,9.10
2019,11,23,18,54,9.10
2019,11,23,18,55,9.10
2019,11,23,18,56,9.10
2019,11,23,18,57,9.10
2019,11,23,18,58,9.10
2019,11,23,18,59,9.10
2019,11,23,19,00,9.10
2019,11,23,19,01,9.10
2019,11,23,19,02,9.10
2019,11,23,19,03,9.10
2019,11,23,19,04,9.10
2019,11,23,19,05,9.10
2019,11,23,19,06,9.10
2019,11,23,19,07,9.10
2019,11,23,19,08,9.20
2019,11,23,19,09,9.20
2019,11,23,19,10,9.20
2019,11,23,19,11,9.20
2019,11,23,19,12,9.20
2019,11,23,19,13,9.20
2019,11,23,19,14,9.20
2019,11,23,19,15,9.20
2019,11,23,19,16,9.20
2019,11,23,19,17,9.20
2019,11,23,19,18,9.20
2019,11,23,19,19,9.30
2019,11,23,19,20,9.30
2019,11,23,19,21,9.30
2019,11,23,19,22,9.30
2019,11,23,19,23,9.30
2019,11,23,19,24,9.30
2019,11,23,19,25,9.30
2019,11,23,19,26,9.30
2019,11,23,19,27,9.30
2019,11,23,19,28,9.30
2019,11,23,19,29,9.30
2019,11,23,19,30,9.30
2019,11,23,19,31,9.30
2019,11,23,19,32,9.30
2019,11,23,19,33,9.30
2019,11,23,19,34,9.30
2019,11,23,19,35,9.30
2019,11,23,19,36,9.30
2019,11,23,19,37,9.30
2019,11,23,19,38,9.30
2019,11,23,19,39,9.30
2019,11,23,19,40,9.30
2019,11,23,19,41,9.30
2019,11,23,19,42,9.30
2019,11,23,19,43,9.30
2019,11,23,19,44,9.30
2019,11,23,19,45,9.30
2019,11,23,19,46,9.30
2019,11,23,19,47,9.30
2019,11,23,19,48,9.30
2019,11,23,19,49,9.30
2019,11,23,19,50,9.30
2019,11,23,19,51,9.30
2019,11,23,19,52,9.30
2019,11,23,19,53,9.30
2019,11,23,19,54,9.20
2019,11,23,19,55,9.30
2019,11,23,19,56,9.30
2019,11,23,19,57,9.30
2019,11,23,19,58,9.30
2019,11,23,19,59,9.30
2019,11,23,20,00,9.30
2019,11,23,20,01,9.30
2019,11,23,20,02,9.30
2019,11,23,20,03,9.30
2019,11,23,20,04,9.30
2019,11,23,20,05,9.30
2019,11,23,20,06,9.30
2019,11,23,20,07,9.30
2019,11,23,20,08,9.40
2019,11,23,20,09,9.40
2019,11,23,20,10,9.40
2019,11,23,20,11,9.40
2019,11,23,20,12,9.40
2019,11,23,20,13,9.40
2019,11,23,20,14,9.40
2019,11,23,20,15,9.40
2019,11,23,20,16,9.40
2019,11,23,20,17,9.40
2019,11,23,20,18,9.40
2019,11,23,20,19,9.40
2019,11,23,20,20,9.40
2019,11,23,20,21,9.40
2019,11,23,20,22,9.40
2019,11,23,20,23,9.40
2019,11,23,20,24,9.40
2019,11,23,20,25,9.40
2019,11,23,20,26,9.40
2019,11,23,20,27,9.40
2019,11,23,20,28,9.40
2019,11,23,20,29,9.40
2019,11,23,20,30,9.40
2019,11,23,20,31,9.40
2019,11,23,20,32,9.40
2019,11,23,20,33,9.40
2019,11,23,20,34,9.40
2019,11,23,20,35,9.40
2019,11,23,20,36,9.40
2019,11,23,20,37,9.40
2019,11,23,20,38,9.40
2019,11,23,20,39,9.40
2019,11,23,20,40,9.40
2019,11,23,20,41,9.40
2019,11,23,20,42,9.40
2019,11,23,20,43,9.40
2019,11,23,20,44,9.40
2019,11,23,20,45,9.40
2019,11,23,20,46,9.40
2019,11,23,20,47,9.40
2019,11,23,20,48,9.40
2019,11,23,20,49,9.40
2019,11,23,20,50,9.40
2019,11,23,20,51,9.40
2019,11,23,20,52,9.40
2019,11,23,20,53,9.40
2019,11,23,20,54,9.40
2019,11,23,20,55,9.40
2019,11,23,20,56,9.40
2019,11,23,20,57,9.40
2019,11,23,20,58,9.40
2019,11,23,20,59,9.40
2019,11,23,21,00,9.40
2019,11,23,21,01,9.40
2019,11,23,21,02,9.40
2019,11,23,21,03,9.40
2019,11,23,21,04,9.40
2019,11,23,21,05,9.40
2019,11,23,21,06,9.40
2019,11,23,21,07,9.40
2019,11,23,21,08,9.40
2019,11,23,21,09,9.40
2019,11,23,21,10,9.40
2019,11,23,21,11,9.40
2019,11,23,21,12,9.30
2019,11,23,21,13,9.30
2019,11,23,21,14,9.30
2019,11,23,21,15,9.30
2019,11,23,21,16,9.30
2019,11,23,21,17,9.30
2019,11,23,21,18,9.30
2019,11,23,21,19,9.30
2019,11,23,21,20,9.30
2019,11,23,21,21,9.30
2019,11,23,21,22,9.30
2019,11,23,21,23,9.30
2019,11,23,21,24,9.30
2019,11,23,21,25,9.30
2019,11,23,21,26,9.30
2019,11,23,21,27,9.30
2019,11,23,21,28,9.30
2019,11,23,21,29,9.30
2019,11,23,21,30,9.30
2019,11,23,21,31,9.30
2019,11,23,21,32,9.30
2019,11,23,21,33,9.20
2019,11,23,21,34,9.20
2019,11,23,21,35,9.30
2019,11,23,21,36,9.20
2019,11,23,21,37,9.20
2019,11,23,21,38,9.20
2019,11,23,21,39,9.20
2019,11,23,21,40,9.30
2019,11,23,21,41,9.30
2019,11,23,21,42,9.30
2019,11,23,21,43,9.30
2019,11,23,21,44,9.20
2019,11,23,21,45,9.20
2019,11,23,21,46,9.20
2019,11,23,21,47,9.30
2019,11,23,21,48,9.30
2019,11,23,21,49,9.30
2019,11,23,21,50,9.30
2019,11,23,21,51,9.30
2019,11,23,21,52,9.30
2019,11,23,21,53,9.30
2019,11,23,21,54,9.30
2019,11,23,21,55,9.30
2019,11,23,21,56,9.30
2019,11,23,21,57,9.40
2019,11,23,21,58,9.40
2019,11,23,21,59,9.40
2019,11,23,22,00,9.40
2019,11,23,22,01,9.40
2019,11,23,22,02,9.40
2019,11,23,22,03,9.40